sat.trackr.live / text

‹ back to catalog

STARLINK-5497

NORAD 55629 · 2023-021B

PAYLOAD ACTIVE UNKNOWN

§ Identity

Operator
Country
US
Launch date
2023-02-17
Launch site
AFWTR
Launch vehicle
Mass (kg)
RCS (m²)

Purposes: comms

External: N2YO · Heavens-Above · Gunter

§ Orbital elements

Epoch: 2026-09-20T22:00:03.000096Z

Period
95.63 min
Inclination
70.0003°
Eccentricity
0.0005469
Mean motion
15.05741333 rev/d
Perigee alt
545.4 km
Apogee alt
553.0 km
Semi-major
6,927.4 km
B*
5.3557e-3
RAAN
72.2598°
Arg perigee
276.3327°
Mean anomaly
331.8508°
Rev number
576

§ Raw data

STARLINK-54971 55629U 23021B   26263.91670139  .00078465  00000+0  53557-2 0  99962 55629  70.0003  72.2598 0005469 276.3327 331.8508 15.05741333  5764

JSON: /api/v1/satellites/55629 · /tle

For live sub-satellite position, see the globe view (requires WebGL).

§ Visibility from observer

Set your observer location to see the next 7 days of passes ≥ 10°. The values pass through the URL so the page stays shareable.

No JS? Fill the form by hand. The geolocation button needs JavaScript.